{"data":{"norad_id":56485,"intl_designator":"2023-064AP","name":"STARLINK-6210","alt_names":[],"object_type":"PAYLOAD","status":"ACTIVE","operator":null,"country":"US","launch_date":"2023-05-10","launch_site_code":"AFWTR","launch_vehicle":null,"mission":null,"orbit_class":"UNKNOWN","rcs_meters":null,"size_class":null,"mass_kg":null,"dimensions":null,"purposes":["comms"],"wikipedia_slug":null,"has_3d_model":false,"image_url":null,"decayed_at":null,"tle_current":{"epoch":"2026-09-20T22:00:03.000096Z","epoch_age_seconds":76006,"freshness":"FRESH","line1":"1 56485U 23064AP  26263.91670139  .00001100  00000+0  88387-4 0  9997","line2":"2 56485  70.0002 351.9890 0003754 277.9675 246.3442 15.03182812  5726","mean_motion":15.03182812,"eccentricity":0.0003754,"inclination_deg":70.0002,"raan_deg":351.989,"arg_perigee_deg":277.9675,"mean_anomaly_deg":246.3442,"bstar":8.8387e-5,"rev_number":572,"period_min":95.796731342615,"perigee_km":554.48587375926,"apogee_km":559.69284170865,"semimajor_km":6935.226357734,"source":"CELESTRAK","updated_at":"2026-09-21T09:00:33.448673Z"}}}